DW5750 Weather Reports


Display with metric or nautical units.
time (UTC)temp
F
wind
direction
speed
MPH
gust
MPH
rain 1hr
in
rain 24hr
in
rain mn
in
humidity
%
barometer
mb
20260510170053 83 147 6.0 8.0 0.00 0.00 0.00 91 1010.1
20260510164607 84 122 6.0 10.0 0.00 0.00 0.00 92 1010.1
20260510163131 84 142 5.0 9.0 0.00 0.00 0.00 91 1010.2
20260510161551 83 114 5.0 9.0 0.00 0.00 0.00 92 1010.3
20260510160050 84 114 5.0 8.0 0.00 0.00 0.00 92 1010.4
20260510154547 83 131 3.0 8.0 0.00 0.00 0.00 93 1010.4
20260510153058 82 113 4.0 8.0 0.00 0.00 0.00 93 1010.3
20260510151555 82 134 5.0 9.0 0.00 0.00 0.00 94 1010.3
20260510150046 82 120 5.0 8.0 0.00 0.00 0.00 94 1010.2
20260510144545 82 143 5.0 9.0 0.00 0.00 0.00 94 1010.1
20260510143053 81 127 5.0 8.0 0.00 0.00 0.00 95 1010.0
20260510141539 82 98 0.0 4.0 0.00 0.00 0.00 96 1010.0
20260510140037 81 89 0.0 0.0 0.00 0.00 0.00 95 1009.9
20260510134534 82 132 0.0 0.0 0.00 0.00 0.00 96 1009.7
20260510133033 81 20 0.0 0.0 0.00 0.00 0.00 97 1009.6
20260510131531 81 20 0.0 0.0 0.00 0.00 0.00 98 1009.5
20260510130027 79 25 0.0 0.0 0.00 0.00 0.00 100 1009.2
20260510124532 79 49 0.0 0.0 0.00 0.00 0.00 100 1009.0
20260510123024 78 322 0.0 0.0 0.00 0.00 0.00 100 1008.8
20260510121523 78 340 0.0 0.0 0.00 0.00 0.00 100 1008.7
20260510120021 78 300 0.0 0.0 0.00 0.00 0.00 100 1008.6
20260510114521 78 340 0.0 0.0 0.00 0.00 0.00 100 1008.5
20260510113020 78 304 0.0 0.0 0.00 0.00 0.00 100 1008.3
20260510111520 79 298 0.0 0.0 0.00 0.00 0.00 100 1008.1
20260510110026 78 34 0.0 0.0 0.00 0.00 0.00 100 1008.0
20260510104519 79 15 0.0 0.0 0.00 0.00 0.00 100 1007.9
20260510103022 79 28 0.0 4.0 0.00 0.00 0.00 100 1007.7
20260510101515 79 41 0.0 0.0 0.00 0.00 0.00 99 1007.7
20260510100028 79 147 0.0 0.0 0.00 0.00 0.00 98 1007.7
20260510094516 80 141 0.0 3.0 0.00 0.00 0.00 98 1007.5
20260510093014 80 157 0.0 5.0 0.00 0.00 0.00 98 1007.5
20260510091512 80 163 1.0 6.0 0.00 0.00 0.00 98 1007.3
20260510090011 80 190 2.0 7.0 0.00 0.00 0.00 98 1007.3
20260510084509 80 202 6.0 9.0 0.00 0.00 0.00 98 1007.3
20260510083018 80 209 3.0 6.0 0.00 0.00 0.00 98 1007.3
20260510081508 80 182 4.0 8.0 0.00 0.00 0.00 98 1007.3
20260510080023 80 130 3.0 10.0 0.00 0.00 0.00 98 1007.3
20260510074505 80 149 4.0 8.0 0.00 0.00 0.00 98 1007.4
20260510073003 80 150 2.0 6.0 0.00 0.00 0.00 98 1007.7
20260510071501 80 168 0.0 1.0 0.00 0.00 0.00 97 1007.8
20260510070059 80 142 0.0 0.0 0.00 0.00 0.00 97 1008.0
20260510064558 80 142 0.0 5.0 0.00 0.00 0.00 97 1008.2
20260510063055 80 139 1.0 4.0 0.00 0.00 0.00 97 1008.4
20260510061556 80 137 2.0 5.0 0.00 0.00 0.00 97 1008.5
20260510060054 80 124 0.0 5.0 0.00 0.00 0.00 97 1008.7
20260510054551 80 147 2.0 5.0 0.00 0.00 0.00 97 1008.7
20260510053051 80 141 2.0 5.0 0.00 0.00 0.00 97 1008.9
20260510051551 80 127 2.0 5.0 0.00 0.00 0.00 98 1008.9
20260510050049 80 121 0.0 5.0 0.00 0.00 0.00 97 1009.0
20260510044556 80 137 2.0 5.0 0.00 0.00 0.00 97 1009.1
20260510043102 80 118 2.0 5.0 0.00 0.00 0.00 97 1009.2
20260510041548 80 139 3.0 5.0 0.00 0.00 0.00 97 1009.0
20260510040055 80 139 1.0 4.0 0.00 0.00 0.00 97 1008.8
20260510034545 80 129 1.0 5.0 0.00 0.00 0.00 97 1008.6
20260510033048 80 163 2.0 5.0 0.00 0.00 0.00 97 1008.3
20260510031541 80 158 2.0 6.0 0.00 0.00 0.00 96 1008.3
20260510030044 80 136 3.0 6.0 0.00 0.00 0.00 96 1008.3
20260510024540 80 129 3.0 6.0 0.00 0.00 0.00 96 1008.1
20260510023038 81 144 3.0 5.0 0.00 0.00 0.00 97 1008.1
20260510021538 80 154 4.0 7.0 0.00 0.00 0.00 96 1007.7
20260510020044 80 146 4.0 7.0 0.00 0.00 0.00 96 1007.6
20260510014542 81 134 3.0 6.0 0.00 0.00 0.00 96 1007.5
20260510013036 81 162 4.0 7.0 0.00 0.00 0.00 96 1007.3
20260510011541 81 141 5.0 7.0 0.00 0.00 0.00 96 1007.2
20260510010035 81 140 4.0 8.0 0.00 0.00 0.00 96 1007.0
20260510004537 81 150 5.0 8.0 0.00 0.00 0.00 96 1006.8
20260510003033 81 148 3.0 8.0 0.00 0.00 0.00 95 1006.5
20260510001533 81 115 4.0 7.0 0.00 0.00 0.00 96 1006.3
20260510000055 81 136 4.0 9.0 0.00 0.00 0.00 95 1006.0
20260509234546 81 122 5.0 11.0 0.00 0.00 0.00 95 1005.8
20260509233033 81 131 5.0 9.0 0.00 0.00 0.00 95 1005.6
20260509231531 81 138 5.0 8.0 0.00 0.00 0.00 95 1005.4
20260509230035 81 148 4.0 7.0 0.00 0.00 0.00 95 1005.4
20260509224529 82 120 3.0 8.0 0.00 0.00 0.00 95 1005.4
20260509223029 82 155 6.0 9.0 0.00 0.00 0.00 95 1005.3
20260509221529 82 117 5.0 9.0 0.00 0.00 0.00 94 1005.0
20260509220024 82 139 5.0 9.0 0.00 0.00 0.00 94 1004.9
20260509183015 84 153 5.0 11.0 0.00 0.00 0.00 92 1007.1
20260509181513 84 128 3.0 10.0 0.00 0.00 0.00 93 1007.2
20260509180014 84 118 6.0 10.0 0.00 0.00 0.00 91 1007.5
20260509174511 84 169 7.0 11.0 0.00 0.00 0.00 91 1007.6
20260509173010 84 141 6.0 12.0 0.00 0.00 0.00 92 1007.8
20260509171509 84 129 7.0 13.0 0.00 0.00 0.00 91 1008.0